TimeMST,TemperatureF,Dew PointF,Humidity,Sea Level PressureIn,VisibilityMPH,Wind Direction,Wind SpeedMPH,Gust SpeedMPH,PrecipitationIn,Events,Conditions,WindDirDegrees,DateUTC
12:53 AM,39.9,19.9,45,30.17,10.0,SSW,13.8,-,N/A,,Clear,200,2012-12-04 07:53:00
1:53 AM,41.0,19.0,41,30.14,10.0,SW,12.7,23.0,N/A,,Clear,220,2012-12-04 08:53:00
2:53 AM,35.1,21.0,57,30.15,10.0,East,3.5,-,N/A,,Clear,80,2012-12-04 09:53:00
3:53 AM,36.0,19.9,52,30.11,10.0,ESE,6.9,-,N/A,,Clear,110,2012-12-04 10:53:00
4:53 AM,33.1,21.9,64,30.10,10.0,Calm,Calm,-,N/A,,Mostly Cloudy,0,2012-12-04 11:53:00
5:53 AM,36.0,21.0,55,30.08,10.0,ESE,5.8,-,N/A,,Overcast,120,2012-12-04 12:53:00
6:53 AM,39.9,21.0,47,30.09,10.0,SSW,17.3,28.8,N/A,,Overcast,200,2012-12-04 13:53:00
7:53 AM,39.0,25.0,57,30.05,10.0,South,6.9,-,N/A,,Overcast,180,2012-12-04 14:53:00
8:53 AM,39.0,25.0,57,30.03,10.0,ESE,10.4,23.0,N/A,,Overcast,120,2012-12-04 15:53:00
9:53 AM,44.1,24.1,45,30.01,10.0,Calm,Calm,-,N/A,,Overcast,0,2012-12-04 16:53:00
10:53 AM,42.1,26.1,53,30.01,-9999.0,West,8.1,-,N/A,,Unknown,260,2012-12-04 17:53:00
11:53 AM,46.9,27.0,46,29.98,10.0,Variable,3.5,-,N/A,,Mostly Cloudy,0,2012-12-04 18:53:00
12:53 PM,50.0,27.0,41,29.95,10.0,South,18.4,26.5,N/A,,Mostly Cloudy,190,2012-12-04 19:53:00
1:53 PM,50.0,27.0,41,29.95,10.0,South,19.6,29.9,N/A,,Overcast,190,2012-12-04 20:53:00
2:53 PM,50.0,28.0,43,29.96,10.0,South,12.7,27.6,N/A,,Overcast,180,2012-12-04 21:53:00
3:53 PM,51.1,28.0,41,29.97,10.0,SSE,5.8,-,N/A,,Mostly Cloudy,160,2012-12-04 22:53:00
4:53 PM,50.0,28.9,44,29.98,10.0,South,12.7,23.0,N/A,,Overcast,170,2012-12-04 23:53:00
5:53 PM,50.0,28.9,44,29.96,10.0,SE,10.4,-,N/A,,Mostly Cloudy,130,2012-12-05 00:53:00
6:53 PM,48.9,30.9,50,29.94,10.0,Variable,3.5,-,N/A,,Clear,0,2012-12-05 01:53:00
7:53 PM,48.9,32.0,52,29.96,10.0,ESE,5.8,-,N/A,,Clear,110,2012-12-05 02:53:00
8:53 PM,48.9,32.0,52,29.95,10.0,Calm,Calm,-,N/A,,Overcast,0,2012-12-05 03:53:00
9:53 PM,48.9,33.1,54,29.94,10.0,SSW,8.1,-,N/A,,Overcast,210,2012-12-05 04:53:00
10:53 PM,50.0,33.1,52,29.92,10.0,SSW,11.5,23.0,N/A,,Overcast,210,2012-12-05 05:53:00
11:53 PM,50.0,32.0,50,29.89,10.0,South,12.7,21.9,N/A,,Scattered Clouds,190,2012-12-05 06:53:00